Dewpoint
18 18 19 19 20 20 21 21 22 23 24 24 24 25 25 25 25 26 26 27 29 31 32 34 34 35 40 43 45 45 47 48 46 47 47 45 46 47 48 49 49 50 52
18 18 19 20 20 20 21 21 22 23 24 23 24 24 24 24 25 25 25 26 27 28 29 32 33 33 35 39 42 44 45 46 47 47 45 44 45 46 46 46 46 48 50
18 19 19 19 20 20 21 21 22 23 23 24 24 23 23 23 25 25 25 25 26 27 27 29 32 32 33 36 39 42 43 46 45 46 44 42 42 43 42 42 43 45 47
18 18 19 19 20 19 20 21 22 23 23 23 23 24 24 25 24 25 24 25 25 26 27 28 30 31 32 33 36 39 42 43 46 45 43 41 40 41 41 40 40 39 41
18 18 19 19 19 20 20 21 20 21 22 22 22 23 24 24 24 24 24 25 25 27 28 29 29 31 32 34 35 37 40 42 44 45 42 40 38 38 40 39 37 35 35
17 18 18 18 18 19 19 20 20 20 21 22 22 23 23 23 24 26 28 28 28 27 26 28 29 30 33 34 34 36 38 38 40 43 42 42 40 39 39 38 34 35 34
17 17 17 17 17 18 18 19 19 20 21 22 23 23 23 23 25 27 28 29 30 29 29 29 29 28 32 32 33 36 38 40 41 42 44 43 41 41 39 37 36 36 34
16 16 16 16 16 17 18 18 19 20 20 22 23 24 24 25 26 28 30 32 33 32 30 29 29 29 30 32 32 33 35 38 41 44 45 44 43 41 40 39 38 32 31
15 15 15 15 16 16 17 18 18 19 20 21 22 24 25 26 27 29 31 33 32 32 32 32 32 31 32 33 34 32 33 36 41 46 48 47 44 42 40 36 33 33 28
14 14 14 15 15 16 16 17 18 19 21 22 23 25 26 26 29 30 31 33 32 32 33 33 34 35 35 37 37 37 33 36 41 43 46 46 44 42 39 38 35 35 29
13 14 14 15 15 16 16 17 18 20 22 23 23 24 26 27 30 31 31 33 33 33 33 34 34 36 36 38 39 39 37 39 41 39 38 38 39 38 37 37 37 35 33
13 13 14 15 15 16 17 19 20 20 21 22 23 25 26 27 29 31 34 34 34 34 34 34 33 36 37 38 38 40 40 40 37 36 34 33 32 31 31 31 32 31 31
13 13 14 15 16 17 18 17 21 21 21 22 22 23 23 25 29 32 35 35 35 34 35 34 34 34 35 37 38 39 41 37 34 32 31 30 29 29 28 28 27 27 27
13 14 15 15 17 16 19 20 21 21 21 21 21 22 24 26 29 33 33 34 34 34 34 35 36 37 37 37 38 39 37 35 33 30 27 27 27 27 27 27 25 25 24
13 14 15 15 17 20 18 18 22 23 24 25 26 26 26 27 29 34 34 33 33 34 33 32 31 31 30 31 32 32 33 32 29 27 27 26 26 26 25 25 25 23 20
13 14 15 18 19 17 18 18 20 23 25 26 27 29 30 32 34 35 34 34 34 33 29 28 27 27 27 27 28 27 29 28 28 28 27 27 25 25 25 25 22 18 17
14 16 19 17 17 18 19 20 18 19 20 22 25 28 31 34 34 34 34 33 32 31 27 26 25 26 26 26 27 27 26 27 28 27 26 26 25 26 23 21 20 19 18
18 16 16 18 20 20 19 20 19 18 18 19 21 27 32 33 33 32 32 31 28 28 26 25 25 25 25 25 25 25 26 27 26 26 26 26 25 22 21 20 18 17 19
15 17 21 20 18 19 19 18 19 19 19 20 22 24 31 32 32 31 31 28 26 25 25 25 25 25 25 26 26 26 26 26 25 25 24 24 22 21 20 19 18 18 18
18 18 17 18 17 17 17 18 18 18 19 20 22 25 30 31 28 27 27 27 26 26 25 25 25 25 25 25 26 26 25 24 24 23 22 21 21 20 20 20 20 18 15
18 16 16 16 16 17 17 18 19 20 20 21 23 27 32 28 27 26 26 26 25 25 25 25 25 25 25 25 24 24 23 23 22 21 21 21 21 21 21 20 18 16 15
15 15 15 15 16 17 18 21 21 21 21 23 25 31 30 28 26 25 25 25 26 26 26 26 25 25 25 24 24 23 22 21 21 21 22 21 21 20 19 18 17 17 16
15 14 14 15 16 17 19 20 21 21 23 25 29 28 27 26 25 25 25 25 25 25 26 26 25 24 25 25 24 22 21 21 21 21 20 20 19 19 18 18 17 17 17
14 14 14 14 16 18 19 20 20 22 28 30 28 27 25 25 24 24 24 25 24 25 25 25 25 24 23 23 23 23 22 22 22 21 20 19 19 19 18 17 17 17 17
14 13 13 14 16 16 19 19 20 22 28 28 26 25 25 24 24 24 24 24 24 23 23 23 23 23 23 22 22 22 22 22 21 21 21 20 19 18 17 17 17 17 16
13 13 13 15 15 15 19 19 20 22 26 26 25 25 24 24 24 24 24 23 23 23 23 22 22 22 22 22 22 23 22 22 21 21 20 19 18 18 17 16 15 15 14
Wind_Speed
16 17 18 18 18 19 18 17 17 17 17 17 18 17 18 18 17 17 17 18 19 17 15 14 14 14 14 13 10 12 10 11 13 8 3 2 2 2 1 1 2 5 8
16 18 19 19 19 19 19 18 17 19 19 19 19 19 19 19 18 18 18 18 17 18 17 15 13 14 15 14 13 12 12 12 9 13 6 4 2 2 3 3 3 4 3
17 18 19 21 20 21 20 19 19 19 19 18 19 21 21 20 20 19 19 19 18 18 18 18 13 13 15 14 13 14 12 13 14 14 6 2 2 4 4 7 6 10 14
18 19 21 21 21 21 20 19 19 19 20 19 19 21 21 22 20 20 20 20 19 18 18 18 17 16 16 15 16 16 14 14 16 14 9 6 3 3 5 10 8 8 12
20 20 21 21 21 20 20 20 20 20 19 19 20 21 21 20 19 20 20 19 19 18 17 18 17 17 19 19 16 17 14 12 12 15 11 7 7 7 12 9 8 9 9
21 22 21 22 22 21 21 21 22 21 20 20 21 21 22 20 24 26 25 20 19 19 19 19 18 19 19 24 25 25 23 19 16 15 14 14 14 10 10 16 14 10 8
21 21 22 21 23 23 23 23 23 22 22 22 22 22 22 22 26 27 26 21 19 18 19 19 19 18 19 19 20 22 24 25 27 21 14 17 15 16 16 15 17 11 8
22 22 21 21 24 25 24 24 23 22 23 22 22 22 22 22 27 28 28 23 19 19 20 21 22 22 20 19 19 18 19 18 20 21 23 16 19 20 26 21 21 11 14
22 21 22 23 24 25 25 26 25 23 23 23 23 23 23 25 27 29 27 20 20 21 20 21 21 22 23 26 23 23 22 20 17 24 22 22 21 24 22 22 19 21 7
22 23 23 23 24 25 26 25 22 23 25 22 25 23 26 26 28 30 27 18 19 19 19 20 26 26 28 29 24 21 21 19 14 11 16 21 24 27 34 25 26 23 12
22 23 24 24 24 25 25 24 24 24 24 23 24 24 24 23 25 29 28 21 17 17 18 18 18 24 27 27 26 21 19 13 14 12 14 16 17 17 11 12 15 20 19
23 24 25 25 24 24 25 24 22 23 24 23 23 22 19 21 24 26 27 26 25 21 20 18 19 23 26 26 23 24 24 19 15 15 18 17 19 17 13 14 16 13 10
24 25 26 27 25 24 24 25 22 21 21 21 20 21 22 20 19 28 25 26 24 21 18 20 26 26 27 26 27 25 25 19 19 18 17 16 14 19 20 19 22 24 22
26 26 26 26 27 25 22 21 20 21 21 21 22 23 23 23 21 19 17 16 17 18 18 20 21 25 24 25 23 22 19 22 23 20 18 18 18 16 19 19 22 19 23
26 26 26 24 25 24 23 21 21 22 23 24 24 23 25 25 23 23 21 17 15 14 8 4 7 7 9 12 18 19 18 19 21 22 23 22 18 19 18 17 17 14 18
27 25 26 25 23 24 24 26 23 26 31 32 33 28 25 28 30 22 18 14 13 6 1 6 8 8 9 11 17 18 18 21 20 22 22 22 21 21 20 17 17 19 23
26 28 24 26 24 24 24 22 28 26 25 27 29 30 30 23 18 14 11 3 3 4 6 8 9 10 10 11 13 17 19 18 21 21 22 22 21 20 22 20 19 20 19
26 31 26 23 22 22 23 22 22 23 26 27 26 27 22 9 11 10 8 5 3 6 8 9 10 11 12 13 14 19 21 21 21 22 22 21 19 20 20 20 18 21 20
28 25 24 23 21 24 22 21 20 21 21 22 23 23 15 9 10 10 7 3 2 6 9 11 11 12 14 14 15 17 20 21 22 22 20 20 18 20 19 19 20 21 21
25 30 29 21 22 21 20 20 20 20 20 20 20 19 14 6 6 6 6 5 6 7 9 11 11 13 14 16 16 18 21 22 21 21 19 18 17 18 21 20 19 19 16
23 23 28 21 21 21 21 20 20 20 20 19 20 19 6 5 6 6 6 7 7 9 10 12 12 13 14 15 17 18 20 20 19 19 19 18 19 20 18 18 18 18 19
21 21 22 22 22 22 21 20 19 19 19 18 18 6 9 7 7 8 9 10 10 11 10 13 14 14 14 15 17 18 20 20 19 19 19 19 19 19 19 19 19 18 18
21 22 22 22 22 24 21 20 19 19 19 17 9 6 7 8 8 10 11 11 12 13 13 14 16 16 15 15 13 14 18 18 17 18 21 20 19 19 18 19 19 19 18
21 22 22 23 21 22 21 21 20 22 18 10 8 8 9 9 10 12 12 12 14 14 14 14 15 17 17 15 14 15 16 17 16 17 20 20 20 19 18 18 17 18 18
22 22 22 22 22 22 22 21 20 20 16 10 8 9 10 10 12 13 14 14 14 15 15 14 14 16 17 18 18 19 22 23 19 18 17 19 20 20 19 18 18 17 18
22 22 22 21 22 22 21 21 20 19 14 10 9 10 10 11 12 13 13 15 15 14 15 14 16 18 19 19 20 22 24 24 21 22 18 19 19 18 18 19 20 18 19
Wind_Direction
320 319 317 315 313 311 309 307 305 306 306 305 304 300 295 292 290 286 283 286 282 279 279 260 267 271 276 292 264 264 269 257 259 219 140 131 146 197 122 48 314 275 264
321 320 314 313 315 312 310 311 311 308 307 305 303 299 299 295 291 286 286 282 283 286 281 271 264 274 276 277 285 275 257 258 256 257 181 163 179 153 110 76 28 35 333
320 317 315 312 313 311 311 310 307 306 306 307 304 299 297 296 295 290 285 284 281 277 279 280 257 269 275 279 284 279 273 258 242 238 206 134 142 174 109 84 67 71 61
318 318 312 311 312 310 309 309 308 308 305 302 300 298 294 291 291 290 285 281 279 276 273 272 266 256 261 265 268 272 268 272 235 225 184 179 156 159 142 133 121 67 83
317 314 312 311 309 309 309 309 308 305 300 301 298 294 291 288 285 286 282 277 277 279 280 281 265 252 254 256 263 271 283 270 275 212 176 176 164 164 181 152 132 120 65
315 312 313 313 311 315 312 310 307 304 301 297 294 290 289 286 285 287 286 281 275 272 273 272 268 262 260 262 260 257 260 265 269 275 182 197 188 180 156 155 146 146 140
313 313 313 314 316 315 312 310 306 304 300 297 294 291 288 285 285 286 282 276 271 263 261 264 267 262 257 257 259 255 256 252 242 249 247 189 178 180 165 159 168 168 159
314 314 314 319 314 312 311 308 305 304 300 298 295 291 288 284 288 287 286 284 274 263 257 255 258 261 255 258 258 256 259 258 246 238 240 203 195 176 177 180 172 129 95
312 314 317 316 312 311 309 308 306 303 300 296 293 289 288 286 286 287 285 274 266 263 257 253 253 253 252 252 249 254 255 258 265 252 224 209 184 173 155 135 151 151 124
315 316 314 312 310 310 308 307 305 301 296 295 293 289 286 288 284 286 286 276 267 263 259 252 250 250 251 250 246 242 246 247 237 222 222 202 178 169 166 173 166 174 142
316 314 312 313 311 308 308 305 303 301 297 294 293 291 285 282 282 283 284 278 268 266 260 257 247 246 249 249 245 236 231 230 211 168 134 124 126 138 145 148 172 171 157
316 315 314 312 312 308 305 303 301 301 298 296 295 294 291 288 285 287 282 282 278 267 265 259 257 251 251 246 251 238 223 221 171 154 141 138 134 126 109 102 103 94 81
319 316 313 311 311 308 308 306 303 302 299 299 299 296 296 295 288 286 277 284 283 276 268 263 258 255 253 254 250 235 220 176 159 153 145 141 133 125 117 102 92 91 81
316 315 314 313 313 313 305 306 303 302 300 296 294 292 294 295 292 283 277 280 275 273 274 267 256 252 248 243 229 226 171 163 160 147 131 122 121 126 122 122 115 109 99
316 315 314 313 309 309 308 304 303 296 292 296 298 297 297 295 292 287 285 282 275 265 257 157 127 124 106 110 121 129 133 134 134 133 131 128 125 120 113 119 120 109 117
317 316 315 312 314 310 308 307 301 303 306 303 302 299 296 289 291 296 298 293 287 208 95 113 101 99 111 121 123 121 125 130 130 128 129 129 127 125 125 117 116 117 121
315 313 312 314 308 307 307 311 315 316 311 307 307 307 307 309 321 312 299 88 115 113 122 108 104 103 102 104 117 123 122 121 123 124 125 124 124 128 125 121 118 117 112
312 313 310 305 307 314 312 311 312 310 315 315 316 317 318 14 22 28 30 28 32 83 110 116 112 110 109 111 117 120 119 118 117 119 120 122 123 125 123 120 120 123 121
316 313 316 319 315 314 314 307 308 307 305 304 310 315 312 325 331 346 9 33 87 99 106 104 106 108 109 111 115 116 117 117 118 116 115 118 121 122 116 117 120 121 121
316 324 326 321 319 314 313 311 309 306 305 304 305 304 308 328 358 10 26 54 84 90 101 106 105 108 108 110 113 115 112 111 111 113 114 115 115 119 119 121 123 124 118
332 326 326 322 318 315 312 309 305 304 303 303 302 304 330 23 24 36 53 65 77 89 95 100 104 106 107 107 109 111 110 111 113 117 116 116 118 115 113 113 115 117 119
332 326 325 322 319 317 315 314 311 306 303 303 307 343 39 44 52 59 62 65 75 80 86 95 95 95 101 106 111 112 114 116 118 118 117 116 115 114 115 116 119 119 120
332 330 328 326 323 320 326 323 319 315 309 305 319 35 45 54 62 67 68 67 74 79 80 87 93 90 87 89 94 111 118 119 122 123 121 119 118 119 121 122 123 123 126
336 334 331 329 329 334 332 331 328 329 330 356 34 50 61 64 70 73 73 71 74 74 75 81 86 93 94 95 95 99 105 109 112 115 118 119 120 120 118 118 122 126 125
340 337 336 334 336 332 335 337 335 333 344 8 40 61 67 70 73 72 73 72 71 74 73 79 85 89 93 101 104 108 115 113 112 114 112 115 116 117 118 119 122 120 119
341 340 339 340 342 338 341 340 338 336 353 15 44 63 71 75 76 77 78 78 78 76 78 80 87 94 98 101 109 117 119 118 116 113 112 114 116 115 117 119 119 119 122